STARLINK-1654, 46326

Orbit data source: Space-Track

STARLINK-1654, 46326 is a payload satellite owned by SpaceX/Seattle (US) in LEO that was launched on Thu, 03 Sep 2020 UTC via an FALCON 9 launch vehicle from the Air Force Eastern Test Range (AFETR). Payload-class satellites include a variety of spacecraft equipped with specific instruments for various scientific and technological missions. These include communications satellites like Starlink; space stations such as the ISS; scientific satellites like the Hubble; Earth observation satellites from companies like Planet Labs, Umbra, and HawkEye 360; GPS; miniature CubeSats for education and research; and military/defense satellites.

Not visible in the next 10 days
Identifier
46326, 2020-062B
Orbit
LEO
Country
Flag of USUS
Related business
Manufacturer
SpaceX/Seattle
Mission
Partially operational Commercial Communications
Bus & Motor
STARLINK, Unknown motor
Mass
260 kg wet, ~248 kg dry
Launch date (UTC)
2020-09-03 (6 years ago)
Launch vehicle
FALCON 9
Launch site
Air Force Eastern Test Range (AFETR)
Object type
Payload
Rocket body
Debris
Shape & HBR
Box + 1 Pan, 10.1 m
Radar Cross Section
13.562 m², Large (>1 m²)

Expand to show TLE details & history
Last TLE update: 14 hours ago

TLE from 14 hours ago
0 STARLINK-1654
1 46326U 20062B   26166.33620524  .04952471  12168-4  85764-3 0  9994
2 46326  53.0201 199.9494 0007700 297.3156  62.7102 16.32071384320408
Epoch: 2026-06-15T08:04Z
TLE epoch observation values (Epoch: 2026-06-15T08:04:08.132Z)
Latitude
-0.00007°
Longitude
175.29141°
Altitude
185.588 km
Speed
7.798 km/s
True Right ascension
13h 19m 47s
True Declination
0° 00' 00"
Sunlit
Object was in full shadow at epoch
Visualization orbit readout
Latitude
Unknown
Longitude
Unknown
Altitude
Unknown
Speed
Unknown
Apparent Right ascension
Unknown
Apparent Declination
Unknown
Sunlit
N/A
Visualization observer readout
Local Sidereal Time
08:25:45
Azimuth
Unknown
Elevation
Unknown
Doppler factor
Unknown
Orbital elements
Apogee altitude
192.325 km
Perigee altitude
182.215 km
Semi-major axis
6,565.407 km
Eccentricity
0.00077
Inclination
53.0201°
RAAN
199.9494°
Arg. of periapsis
297.3156°
True anomaly
62.78865°
Mean anomaly
62.7102°
Eccentric anomaly
62.74942°
Mean motion
4.07991 °/min
Orbital period
88.24 mins
BSTAR
0.00085764
Loading maneuver chart data...
Computing Atmospheric mass density...

Documentation

Showing up to 5 results
|